SL-14 R/B (20466 NORAD) Tracking and Keplerian Element Data

This shows tracking and keplerian element data for the satellite.

Feedback or suggestion? Click here.




ElementValue
Catalog20466
NameSL-14 R/B
Epoch Orbit55773
Epoch Day345.1862779
Epoch Year2018
RAAN225.4498
Inclination82.5043
Eccentricity0.0020593
Argument of Perigee2.5863
Mean Anonmoly357.5453
Mean Motion14.81341371
Decay Rate7.9E-07
L11 20466U 90010B 18345.18627790 .00000079 00000-0 71035-5 0 9996
L22 20466 82.5043 225.4498 0020593 2.5863 357.5453 14.81341371557731

Live tracking and technical data element details for SL-14 R/B (NORAD 20466). SL-14 R/B can be tracked NOW for your location showing map with azimuth and elevation plus other details from your city location.

Track the satellite on the map from your city or location and see movement details for azimuth, elevation, latitude, longitude, range, height, and movement on the map or in text.







IsCatalogInMostPopularTable: catalog: 20466, numindb: 37
Update: records affected: 1



GetName: 20466 SL-14 R/B

Hit Count: updated at: Thu, 13 Dec 2018 04:37:00 GMT